Regional Weather Roundup
Issued by NWS Newport/Morehead, NC

Current Version | Previous Version | Text Only | Print | Product List | Glossary Off
Versions: 1 2 3 4 5 6 7 8 9 10 11 12 13 14 15 16 17 18 19 20 21 22 23 24 25 26 27 28 29 30 31 32 33 34 35 36 37 38 39 40 41 42 43 44 45 46 47 48 49 50
000 ASUS42 KMHX 300725 RWRMHX WEATHER ROUNDUP FOR EASTERN NORTH CAROLINA NATIONAL WEATHER SERVICE NEWPORT/MOREHEAD CITY NC 300 AM EDT MON MAY 30 2016 NOTE: "FAIR" INDICATES FEW OR NO CLOUDS BELOW 12,000 FEET WITH NO SIGNIFICANT WEATHER AND/OR OBSTRUCTIONS TO VISIBILITY NCZ015>017-031-032-045>047-102-103-300800- NORTH COAST CITY SKY/WX TMP DP RH WIND PRES REMARKS EDENTON CLOUDY N/A N/A N/A SE6 30.01F ELIZABETH CITY CLOUDY 74 73 97 S6 30.02F KITTY HAWK RAIN 73 72 95 SE5 30.02R MANTEO NOT AVBL $$ NCZ045>047-081-094-103-104-300800- CENTRAL COAST CITY SKY/WX TMP DP RH WIND PRES REMARKS FRISCO LGT RAIN 74 71 91 S12 30.02F FOG $$ NCZ095-097-098-100-101-300800- SOUTHERN COAST CITY SKY/WX TMP DP RH WIND PRES REMARKS BEAUFORT CLOUDY 75 72 90 S3 29.99F CEDAR ISLAND NOT AVBL JACKSONVILLE PTCLDY 75 72 90 SE8 29.97F PINEY ISLAND LGT RAIN N/A N/A N/A SE5 30.00F WILMINGTON CLOUDY 74 71 91 E3 29.96F $$ NCZ011>013-027>030-043-044-078>080-089-090>093-098-300800- COASTAL PLAIN CITY SKY/WX TMP DP RH WIND PRES REMARKS AHOSKIE CLOUDY 71 70 98 CALM 30.01S FOG CLINTON MOCLDY 71 71 100 CALM 29.98S ELIZABETHTOWN CLOUDY 71 71 100 CALM 29.96S GOLDSBORO PTCLDY 71 71 100 E3 29.97F GREENVILLE PTCLDY 70 70 100 CALM 30.01F FOG HAVELOCK CLOUDY 73 70 90 S7 30.00F KENANSVILLE MOCLDY 71 70 98 CALM 29.98F FOG KINSTON CLOUDY 72 71 96 E3 29.99F NEW BERN LGT RAIN 73 70 90 S5 30.00F RICHLANDS MOCLDY 72 72 100 NE3 29.98F ROCKY MOUNT MOCLDY 70 70 100 CALM 29.99F WASHINGTON LGT RAIN 73 72 98 CALM 29.99F WHITEVILLE MOCLDY 71 70 96 NE5 29.94F $$ AMZ130-135-150-152-154-156-158-170-250-252-270-ANZ085-086-088-633-658-670-300800- MARINE OBSERVATIONS STATION/POSITION TIME TEMP WIND PRES WAVE SWELL AIR SEA DIR/SP/G HT/PER HT/PER (UTC) (F) (DEG/KT/KT) (MB) (FT/S) (FT/S) CHESAPEAKE LIGHT 0700 70 160/ 17/ 18 1016.9 64 E VA BEACH 0650 68 63 180/ 10/ 12 1017.0 5/ 7 5/ 7 DUCK 0700 64 59 150/ 10/ 12 1016.0 2 E DUCK 0611 62 N/A 3/ 7 OREGON INLET 0700 72 79 150/ 9/ 13 1016.9 13E OREGON INLT 0700 67 N/A 4/ 6 3/ 6 HATTERAS CG 0700 74 77 160/ 12/ 18 1016.0 DIAMOND BUOY 0650 78 81 160/ 19/ 21 1016.0 6/ 8 3/ 8 CAPE LOOKOUT 0700 76 160/ 11/ 13 1015.1 BEAUFORT LAB 0700 76 75 190/ 5/ 6 1014.8 30 SE NEW RVR IN 0625 75 N/A 6/ 6 27 SE WRIGHTSVLE 0608 78 76 170/ 14/ 19 1014.3 5 SE WRIGHTSVLE 0608 76 76 180/ 6/ 10 1015.3 225 S CAPE HAT 0650 75 76 130/ 14/ 17 1016.5 4/ 8 3/ 8 41 SE CHARLESTON 0650 74 77 190/ 17/ 19 1012.0 6/ 7 2/12 $$

USA.gov is the U.S. government's official web portal to all federal, state and local government web resources and services.